"2009-07-04 00:00:00",1031342,2.752,308.4,8.78,0.551,19.87,109.1047,22.59,23.64,38.35,0,111.1,13.19,23.43,270.4
"2009-07-04 00:00:30",1031343,3.48,310,2.866,0.3,20.03,109.1056,22.6,23.63,37.67,0,111.1,13.18,23.43,272.0
"2009-07-04 00:01:00",1031344,3.729,311.9,4.439,0.353,20.03,109.1053,22.6,23.62,37.59,0,111.1,13.18,23.43,273.9
"2009-07-04 00:01:30",1031345,3.958,314.3,2.596,0.247,19.98,109.105,22.6,23.63,37.82,0,111.1,13.18,23.43,276.3
"2009-07-04 00:02:00",1031346,3.609,308.1,4.728,0.454,19.95,109.1056,22.6,23.63,38.14,0,111.1,13.18,23.43,270.1
"2009-07-04 00:02:30",1031347,3.252,306.4,5.818,0.453,19.92,109.1037,22.59,23.61,38.19,0,111.1,13.18,23.42,268.4
"2009-07-04 00:03:00",1031348,3.129,285.4,6.956,0.194,19.87,109.0977,22.58,23.61,38.59,0,111.1,13.18,23.41,247.4
"2009-07-04 00:03:30",1031349,2.708,281.4,7.078,0.392,19.85,109.0854,22.55,23.61,38.71,0,111.1,13.18,23.38,243.4
"2009-07-04 00:04:00",1031350,2.121,292.2,8.18,0.323,19.78,109.0715,22.51,23.59,38.58,0,111.1,13.19,23.34,254.2
"2009-07-04 00:04:30",1031351,2.783,303.7,5.696,0.122,20.03,109.0716,22.51,23.59,38.62,0,111.1,13.18,23.34,265.7
"2009-07-04 00:05:00",1031352,2.94,298.1,3.733,0.241,20.04,109.0725,22.51,23.58,38.24,0,111.1,13.18,23.34,260.1
"2009-07-04 00:05:30",1031353,3.39,304.2,3.21,0.131,20.07,109.0747,22.52,23.58,38.33,0,111.1,13.18,23.35,266.2
"2009-07-04 00:06:00",1031354,3.105,297.5,3.446,0.197,20.08,109.0653,22.49,23.57,38.42,0,111.1,13.18,23.32,259.5
"2009-07-04 00:06:30",1031355,3.241,297.4,2.544,0.347,20.06,109.0462,22.44,23.54,38.58,0,111.1,13.18,23.27,259.4
"2009-07-04 00:07:00",1031356,3.291,296.2,6.668,0.336,20.09,109.0391,22.43,23.54,38.15,0,111.1,13.19,23.26,258.2
"2009-07-04 00:07:30",1031357,3.057,297.6,3.272,0.214,20.04,109.0391,22.43,23.52,38.24,0,111.1,13.19,23.26,259.6
"2009-07-04 00:08:00",1031358,2.898,295.4,1.363,0.133,20.09,109.0382,22.42,23.51,38.19,0,111.1,13.19,23.25,257.4
"2009-07-04 00:08:30",1031359,2.583,296.8,2.401,0.069,19.99,109.0376,22.42,23.49,38.44,0,111.1,13.19,23.25,258.8
"2009-07-04 00:09:00",1031360,2.074,282.2,4.587,0.154,19.87,109.0343,22.41,23.48,38.51,0,111.1,13.19,23.24,244.2
"2009-07-04 00:09:30",1031361,1.818,289.2,4.182,0.089,19.82,109.0189,22.37,23.48,38.3,0,111.1,13.19,23.20,251.2
"2009-07-04 00:10:00",1031362,1.597,284.1,7.96,0.19,19.75,109.006,22.34,23.45,38.39,0,111.1,13.19,23.17,246.1
"2009-07-04 00:10:30",1031363,1.484,275.7,4.198,0.143,19.64,108.9876,22.29,23.41,38.65,0,111.1,13.19,23.12,237.7
"2009-07-04 00:11:00",1031364,1.169,273.2,3.561,0.07,19.53,108.9711,22.25,23.38,38.98,0,111.1,13.19,23.08,235.2
"2009-07-04 00:11:30",1031365,1.061,266.5,7.507,0.128,19.49,108.9711,22.25,23.34,39.23,0,111.1,13.19,23.08,228.5
"2009-07-04 00:12:00",1031366,1.068,255.5,2.87,0.171,19.46,108.9705,22.25,23.32,40.36,0,111.1,13.19,23.08,217.5
"2009-07-04 00:12:30",1031367,1.394,252.2,4.427,0.081,19.38,108.9705,22.25,23.3,40.61,0,111.1,13.19,23.08,214.2
"2009-07-04 00:13:00",1031368,1.385,245.8,4.693,0.063,19.35,108.9651,22.24,23.3,40.55,0,111.1,13.19,23.07,207.8
"2009-07-04 00:13:30",1031369,1.535,248.6,2.79,0.242,19.42,108.959,22.22,23.29,40.51,0,111,13.19,23.05,210.6
"2009-07-04 00:14:00",1031370,1.318,252.4,3.722,0.298,19.44,108.9531,22.21,23.29,40.63,0,111,13.19,23.04,214.4
"2009-07-04 00:14:30",1031371,1.024,249.5,7.789,0.178,19.45,108.9466,22.19,23.27,40.69,0,111,13.19,23.02,211.5
"2009-07-04 00:15:00",1031372,1.56,263.8,11.71,0.262,19.66,108.9474,22.19,23.27,40.7,0,111,13.19,23.02,225.8
"2009-07-04 00:15:30",1031373,1.404,275.9,5.586,0.26,19.7,108.9393,22.17,23.27,40.03,0,111,13.19,23.00,237.9
"2009-07-04 00:16:00",1031374,1.47,282.4,8.6,0.206,19.72,108.9385,22.17,23.26,40.11,0,111,13.18,23.00,244.4
"2009-07-04 00:16:30",1031375,1.385,291.6,4.842,0.155,19.79,108.938,22.17,23.26,39.95,0,111,13.18,23.00,253.6
"2009-07-04 00:17:00",1031376,1.613,299.9,5.295,0.122,19.6,108.9389,22.17,23.25,40.08,0,111,13.18,23.00,261.9
"2009-07-04 00:17:30",1031377,1.485,296.3,3.057,0.086,19.46,108.938,22.17,23.26,40.44,0,111,13.18,23.00,258.3
"2009-07-04 00:18:00",1031378,1.669,305.2,4.331,0.151,19.59,108.9383,22.17,23.23,40.69,0,111,13.18,23.00,267.2
"2009-07-04 00:18:30",1031379,1.755,308.3,2.608,0.111,19.66,108.9392,22.17,23.25,40.34,0,111,13.18,23.00,270.3
"2009-07-04 00:19:00",1031380,1.576,312.8,2.82,0.114,19.69,108.938,22.17,23.23,40.19,0,111,13.18,23.00,274.8
"2009-07-04 00:19:30",1031381,1.423,314.3,3.5,0.17,19.71,108.938,22.17,23.23,39.83,0,111,13.18,23.00,276.3
"2009-07-04 00:20:00",1031382,1.27,313.9,5.349,0.205,19.66,108.9383,22.17,23.24,39.73,0,111,13.18,23.00,275.9
"2009-07-04 00:20:30",1031383,1.063,313.7,3.45,0.13,19.66,108.9376,22.17,23.24,39.76,0,111,13.18,23.00,275.7
"2009-07-04 00:21:00",1031384,0.905,318.7,3.894,0.136,19.68,108.9383,22.17,23.23,39.68,0,111,13.18,23.00,280.7
"2009-07-04 00:21:30",1031385,0.879,311.9,2.918,0.155,19.67,108.9376,22.17,23.23,40.57,0,111,13.18,23.00,273.9
"2009-07-04 00:22:00",1031386,1.065,313.1,2.515,0.161,19.71,108.9386,22.17,23.23,41.19,0,111,13.18,23.00,275.1
"2009-07-04 00:22:30",1031387,1.037,309.4,6.807,0.076,19.75,108.9389,22.17,23.23,41.29,0,111,13.19,23.00,271.4
"2009-07-04 00:23:00",1031388,0.93,305.6,3.795,0.072,19.76,108.9391,22.17,23.24,41.3,0,111,13.19,23.00,267.6
"2009-07-04 00:23:30",1031389,0.855,301.4,3.687,0.043,19.77,108.9376,22.17,23.23,41.34,0,111,13.19,23.00,263.4
"2009-07-04 00:24:00",1031390,0.7,297.3,3.703,0.064,19.78,108.9383,22.17,23.23,41.42,0,111,13.19,23.00,259.3
"2009-07-04 00:24:30",1031391,0.857,296.4,2.975,0.131,19.81,108.9385,22.17,23.22,41.59,0,111,13.19,23.00,258.4
"2009-07-04 00:25:00",1031392,0.838,295.5,2.91,0.035,19.79,108.94,22.17,23.23,41.57,0,111,13.19,23.00,257.5
"2009-07-04 00:25:30",1031393,0.828,295.5,3.278,0.042,19.79,108.9414,22.18,23.23,41.73,0,111,13.19,23.00,257.5
"2009-07-04 00:26:00",1031394,0.662,289.3,3.965,0.041,19.77,108.9442,22.18,23.23,41.8,0,111,13.19,23.01,251.3
"2009-07-04 00:26:30",1031395,0.629,291.5,4.668,0.099,19.77,108.9406,22.17,23.24,41.84,0,111,13.19,23.00,253.5
"2009-07-04 00:27:00",1031396,0.462,285.1,5.776,0.103,19.78,108.9416,22.18,23.24,41.77,0,111,13.19,23.01,247.1
"2009-07-04 00:27:30",1031397,0.831,299.8,3.343,0.092,19.74,108.937,22.16,23.24,41.69,0,111,13.19,22.99,261.8
"2009-07-04 00:28:00",1031398,0.699,308.3,4.605,0.133,19.76,108.9401,22.17,23.21,41.51,0,111,13.19,23.00,270.3
"2009-07-04 00:28:30",1031399,0.56,322.5,9.61,0.066,19.77,108.9389,22.17,23.22,41.58,0,111,13.19,23.00,284.5
"2009-07-04 00:29:00",1031400,0.839,327.3,2.98,0.143,19.77,108.9386,22.17,23.22,41.9,0,111,13.19,23.00,289.3
"2009-07-04 00:29:30",1031401,1.039,325.8,3.341,0.05,19.78,108.9422,22.18,23.22,42.09,0,111,13.19,23.01,287.8
"2009-07-04 00:30:00",1031402,1.1,332.6,2.673,0.072,19.8,108.9401,22.17,23.23,42.06,0,111,13.19,23.00,294.6
"2009-07-04 00:30:30",1031403,1.083,332.5,3.346,0.065,19.78,108.941,22.17,23.21,42.11,0,111,13.19,23.00,294.5
"2009-07-04 00:31:00",1031404,1.062,335.4,3.691,0.064,19.75,108.9416,22.18,23.23,42.12,0,111,13.19,23.01,297.4
"2009-07-04 00:31:30",1031405,1.107,334.1,2.007,0.072,19.74,108.9438,22.18,23.23,42.17,0,111,13.19,23.01,296.1
"2009-07-04 00:32:00",1031406,1.089,333.4,1.936,0.059,19.73,108.9462,22.19,23.21,42.04,0,111,13.19,23.02,295.4
"2009-07-04 00:32:30",1031407,1.094,330.6,2.47,0.062,19.68,108.9428,22.18,23.21,42.15,0,111,13.19,23.01,292.6
"2009-07-04 00:33:00",1031408,1.143,330,2.286,0.066,19.47,108.9425,22.18,23.21,42.28,0,111,13.19,23.01,292.0
"2009-07-04 00:33:30",1031409,1.078,325.2,2.139,0.056,19.3,108.9444,22.18,23.21,42.41,0,111,13.18,23.01,287.2
"2009-07-04 00:34:00",1031410,1.118,320.4,1.348,0.076,19.15,108.9429,22.18,23.22,42.5,0,111,13.18,23.01,282.4
"2009-07-04 00:34:30",1031411,1.182,317.9,1.805,0.036,19.09,108.9435,22.18,23.22,42.29,0,111,13.18,23.01,279.9
"2009-07-04 00:35:00",1031412,1.202,314.3,0.71,0.076,18.99,108.9407,22.17,23.21,42.05,0,111,13.18,23.00,276.3
"2009-07-04 00:35:30",1031413,1.25,315.9,1.837,0.064,19.03,108.9401,22.17,23.21,41.94,0,111,13.18,23.00,277.9
"2009-07-04 00:36:00",1031414,1.171,313.7,1.252,0.064,18.87,108.938,22.17,23.22,41.98,0,111,13.18,23.00,275.7
"2009-07-04 00:36:30",1031415,1.279,312.3,1.245,0.057,18.87,108.937,22.16,23.21,41.95,0,111,13.18,22.99,274.3
"2009-07-04 00:37:00",1031416,1.307,310.5,2.014,0.046,18.81,108.9454,22.19,23.22,41.88,0,111,13.18,23.02,272.5
"2009-07-04 00:37:30",1031417,1.173,309.7,1.799,0.061,18.62,108.9647,22.24,23.23,41.94,0,111,13.18,23.07,271.7
"2009-07-04 00:38:00",1031418,1.09,310.3,1.941,0.036,18.59,108.9683,22.24,23.24,42.07,0,111,13.18,23.07,272.3
"2009-07-04 00:38:30",1031419,1.06,310.5,0.664,0.059,18.58,108.9689,22.25,23.27,42.17,0,111,13.18,23.08,272.5
"2009-07-04 00:39:00",1031420,0.92,309.3,2.027,0.043,18.72,108.9784,22.27,23.28,42.19,0,111,13.18,23.10,271.3
"2009-07-04 00:39:30",1031421,0.936,304.8,3.072,0.077,18.76,108.9989,22.32,23.29,42.18,0,111,13.18,23.15,266.8
"2009-07-04 00:40:00",1031422,0.867,307,1.657,0.029,18.72,109.002,22.33,23.31,42.19,0,111,13.18,23.16,269.0
"2009-07-04 00:40:30",1031423,0.896,308.3,2.068,0.044,18.66,109.0135,22.36,23.33,42.21,0,111,13.18,23.19,270.3
"2009-07-04 00:41:00",1031424,0.933,302.2,2.514,0.03,18.72,109.0334,22.41,23.35,42.08,0,111,13.18,23.24,264.2
"2009-07-04 00:41:30",1031425,0.91,297.8,1.103,0.037,18.71,109.0317,22.41,23.38,41.97,0,111,13.18,23.24,259.8
"2009-07-04 00:42:00",1031426,0.924,296.4,2.06,0.038,18.67,109.0514,22.46,23.41,42,0,111,13.18,23.29,258.4
"2009-07-04 00:42:30",1031427,0.975,292.6,1.116,0.044,18.59,109.0603,22.48,23.42,42.02,0,111,13.18,23.31,254.6
"2009-07-04 00:43:00",1031428,1.113,292.2,2.823,0.095,18.68,109.0701,22.51,23.46,41.77,0,111,13.18,23.34,254.2
"2009-07-04 00:43:30",1031429,1.196,292.6,2.06,0.046,18.78,109.0829,22.54,23.49,41.39,0,111,13.18,23.37,254.6
"2009-07-04 00:44:00",1031430,1.398,289.9,2.64,0.126,18.84,109.0767,22.52,23.51,41.18,0,111,13.18,23.35,251.9
"2009-07-04 00:44:30",1031431,1.628,293,1.855,0.12,18.76,109.0987,22.58,23.55,40.96,0,111,13.18,23.41,255.0
"2009-07-04 00:45:00",1031432,2.121,290.1,1.461,0.155,18.86,109.1037,22.59,23.58,40.69,0,111,13.18,23.42,252.1
"2009-07-04 00:45:30",1031433,2.4,290.1,1.101,0.121,19,109.1268,22.65,23.6,39.9,0,111,13.18,23.48,252.1
"2009-07-04 00:46:00",1031434,2.769,291.4,0.992,0.098,19.17,109.1369,22.68,23.64,38.53,0,111.1,13.18,23.51,253.4
"2009-07-04 00:46:30",1031435,2.828,283.8,3.044,0.133,19.31,109.1653,22.75,23.68,39.28,0,111.1,13.18,23.58,245.8
"2009-07-04 00:47:00",1031436,2.766,279.4,3.404,0.124,19.32,109.1698,22.76,23.7,39.71,0,111.1,13.17,23.59,241.4
"2009-07-04 00:47:30",1031437,2.566,280.9,2.3,0.095,19.29,109.1964,22.83,23.75,40.07,0,111.1,13.17,23.66,242.9
"2009-07-04 00:48:00",1031438,2.513,287.7,2.071,0.07,19.27,109.2018,22.84,23.78,38.92,0,111.1,13.17,23.68,249.7
"2009-07-04 00:48:30",1031439,2.622,288.5,2.077,0.077,19.25,109.2181,22.89,23.81,39.02,0,111.1,13.17,23.72,250.5
"2009-07-04 00:49:00",1031440,2.719,282.5,2.398,0.168,19.34,109.2349,22.93,23.84,39.47,0,111.1,13.17,23.76,244.5
"2009-07-04 00:49:30",1031441,3.014,280.1,2.806,0.139,19.38,109.2377,22.94,23.87,39.58,0,111.1,13.17,23.77,242.1
"2009-07-04 00:50:00",1031442,3.227,279.6,2.036,0.116,19.39,109.2607,23,23.9,39.38,0,111.1,13.17,23.83,241.6
"2009-07-04 00:50:30",1031443,3.385,274.9,1.729,0.083,19.47,109.2677,23.01,23.93,39.41,0,111.1,13.17,23.85,236.9
"2009-07-04 00:51:00",1031444,3.307,276.7,2.082,0.141,19.52,109.2677,23.01,23.95,39.51,0,111.1,13.17,23.85,238.7
"2009-07-04 00:51:30",1031445,3.089,279.7,1.173,0.107,19.51,109.2714,23.02,23.98,39.53,0,111.1,13.16,23.86,241.7
"2009-07-04 00:52:00",1031446,3.242,279.8,1.41,0.116,19.55,109.292,23.08,23.99,39.45,0,111.1,13.16,23.91,241.8
"2009-07-04 00:52:30",1031447,3.133,282.2,1.407,0.052,19.61,109.2943,23.08,24.01,39.44,0,111.1,13.16,23.91,244.2
"2009-07-04 00:53:00",1031448,3.172,284.2,0.237,0.087,19.68,109.2943,23.08,24.02,39.45,0,111.1,13.16,23.91,246.2
"2009-07-04 00:53:30",1031449,3.243,282.1,0.848,0.069,19.61,109.2931,23.08,24.04,39.08,0,111.1,13.16,23.91,244.1
"2009-07-04 00:54:00",1031450,3.23,283.6,0.986,0.097,19.66,109.297,23.09,24.06,39.06,0,111.1,13.16,23.92,245.6
"2009-07-04 00:54:30",1031451,3.193,283.5,1.804,0.08,19.62,109.3086,23.12,24.07,39.04,0,111.1,13.15,23.95,245.5
"2009-07-04 00:55:00",1031452,3.075,285,0.773,0.041,19.69,109.3206,23.15,24.07,39.09,0,111.1,13.16,23.98,247.0
"2009-07-04 00:55:30",1031453,3.161,285.3,0.745,0.064,19.67,109.3226,23.15,24.1,39.05,0,111.1,13.16,23.99,247.3
"2009-07-04 00:56:00",1031454,3.177,284.5,0.595,0.047,19.68,109.3262,23.16,24.1,39,0,111.1,13.16,24.00,246.5
"2009-07-04 00:56:30",1031455,3.194,282.7,1.039,0.054,19.61,109.3256,23.16,24.12,38.97,0,111.1,13.16,23.99,244.7
"2009-07-04 00:57:00",1031456,3.217,281.5,1.171,0.087,19.63,109.3247,23.16,24.13,38.9,0,111.1,13.16,23.99,243.5
"2009-07-04 00:57:30",1031457,3.381,282.4,0.693,0.087,19.67,109.3241,23.16,24.13,38.82,0,111.1,13.16,23.99,244.4
"2009-07-04 00:58:00",1031458,3.522,281.8,0.542,0.075,19.67,109.3222,23.15,24.15,38.93,0,111.1,13.16,23.99,243.8
"2009-07-04 00:58:30",1031459,3.408,281.1,0.686,0.04,19.62,109.3191,23.15,24.14,39.09,0,111.1,13.16,23.98,243.1
"2009-07-04 00:59:00",1031460,3.575,280.9,0.514,0.048,19.61,109.3182,23.14,24.15,39.12,0,111.1,13.16,23.98,242.9
"2009-07-04 00:59:30",1031461,3.697,281.9,0.641,0.082,19.68,109.3158,23.14,24.15,38.98,0,111.1,13.16,23.97,243.9
"2009-07-04 01:00:00",1031462,3.72,280.7,0.785,0.044,19.62,109.3139,23.13,24.15,38.92,0,111.1,13.16,23.96,242.7
"2009-07-04 01:00:30",1031463,3.935,278.9,0.713,0.102,19.62,109.3102,23.12,24.17,38.89,0,111.1,13.16,23.96,240.9
"2009-07-04 01:01:00",1031464,4.188,277.6,0.562,0.05,19.67,109.3065,23.11,24.15,38.79,0,111.1,13.16,23.95,239.6
"2009-07-04 01:01:30",1031465,4.409,277.1,0.638,0.108,19.68,109.3059,23.11,24.17,38.63,0,111.2,13.16,23.94,239.1
"2009-07-04 01:02:00",1031466,4.4,277.3,0.807,0.096,19.71,109.3029,23.1,24.15,38.52,0,111.2,13.16,23.94,239.3
"2009-07-04 01:02:30",1031467,4.32,279.5,1.148,0.063,19.81,109.3029,23.1,24.15,38.56,0,111.2,13.16,23.94,241.5
"2009-07-04 01:03:00",1031468,4.415,277.3,1.277,0.085,19.81,109.2991,23.09,24.13,38.57,0,111.2,13.16,23.93,239.3
"2009-07-04 01:03:30",1031469,4.779,273.8,0.828,0.095,19.82,109.2918,23.08,24.12,38.57,0,111.2,13.16,23.91,235.8
"2009-07-04 01:04:00",1031470,4.863,273.4,0.579,0.083,19.76,109.2873,23.06,24.12,38.59,0,111.2,13.16,23.90,235.4
"2009-07-04 01:04:30",1031471,4.723,274.7,0.803,0.061,19.79,109.278,23.04,24.12,38.66,0,111.2,13.16,23.87,236.7
"2009-07-04 01:05:00",1031472,4.886,275,0.487,0.063,19.76,109.2684,23.02,24.1,38.7,0,111.2,13.16,23.85,237.0
"2009-07-04 01:05:30",1031473,4.805,277,1.431,0.07,19.79,109.2673,23.01,24.1,38.73,0,111.2,13.16,23.84,239.0
"2009-07-04 01:06:00",1031474,4.729,284,4.182,0.174,19.97,109.2676,23.01,24.09,38.63,0,111.2,13.16,23.85,246.0
"2009-07-04 01:06:30",1031475,4.576,281.9,2.695,0.16,19.98,109.2673,23.01,24.08,38.4,0,111.2,13.16,23.84,243.9
"2009-07-04 01:07:00",1031476,4.647,279.6,1.294,0.084,19.92,109.267,23.01,24.06,38.73,0,111.2,13.16,23.84,241.6
"2009-07-04 01:07:30",1031477,4.621,279.1,1.086,0.052,19.93,109.2652,23.01,24.06,38.91,0,111.2,13.15,23.84,241.1
"2009-07-04 01:08:00",1031478,4.514,277,0.637,0.076,19.96,109.2524,22.97,24.07,38.9,0,111.2,13.15,23.81,239.0
"2009-07-04 01:08:30",1031479,4.426,276.8,0.362,0.031,19.98,109.2436,22.95,24.05,38.77,0,111.2,13.15,23.78,238.8
"2009-07-04 01:09:00",1031480,4.496,278.2,0.653,0.057,19.94,109.2398,22.94,24.03,38.7,0,111.2,13.15,23.77,240.2
"2009-07-04 01:09:30",1031481,4.438,279.6,0.61,0.041,19.97,109.2335,22.93,24.03,38.64,0,111.2,13.15,23.76,241.6
"2009-07-04 01:10:00",1031482,4.434,279.3,0.654,0.069,19.95,109.2346,22.93,24.02,38.73,0,111.2,13.15,23.76,241.3
"2009-07-04 01:10:30",1031483,4.461,278.7,0.924,0.087,19.99,109.2364,22.93,24,38.77,0,111.2,13.15,23.77,240.7
"2009-07-04 01:11:00",1031484,4.783,277.5,0.541,0.106,19.98,109.2361,22.93,23.99,38.74,0,111.2,13.15,23.76,239.5
"2009-07-04 01:11:30",1031485,5.024,275.9,0.834,0.097,20.08,109.2359,22.93,23.99,38.74,0,111.2,13.15,23.76,237.9
"2009-07-04 01:12:00",1031486,5.044,275.2,0.551,0.064,20.1,109.2192,22.89,23.98,38.7,0,111.2,13.15,23.72,237.2
"2009-07-04 01:12:30",1031487,4.886,275,1.393,0.118,20.2,109.2085,22.86,23.96,38.6,0,111.2,13.15,23.69,237.0
"2009-07-04 01:13:00",1031488,4.762,274.3,0.803,0.083,20.3,109.2101,22.87,23.95,38.55,0,111.2,13.15,23.70,236.3
"2009-07-04 01:13:30",1031489,4.771,273.9,0.85,0.067,20.33,109.2158,22.88,23.93,38.75,0,111.2,13.15,23.71,235.9
"2009-07-04 01:14:00",1031490,4.72,274.8,0.702,0.084,20.34,109.1984,22.84,23.9,38.9,0,111.2,13.15,23.67,236.8
"2009-07-04 01:14:30",1031491,4.677,276.1,0.693,0.174,20.42,109.1895,22.81,23.89,39.08,0,111.2,13.16,23.64,238.1
"2009-07-04 01:15:00",1031492,5.161,273.7,0.607,0.075,20.35,109.1914,22.82,23.88,39.26,0,111.2,13.16,23.65,235.7
"2009-07-04 01:15:30",1031493,5.082,274.3,0.354,0.054,20.35,109.1799,22.79,23.84,39.32,0,111.1,13.16,23.62,236.3
"2009-07-04 01:16:00",1031494,5.184,273.8,0.683,0.062,20.27,109.1611,22.74,23.82,39.36,0,111.1,13.16,23.57,235.8
"2009-07-04 01:16:30",1031495,5.049,273.9,1.931,0.116,20.28,109.1583,22.73,23.8,39.53,0,111.1,13.16,23.56,235.9
"2009-07-04 01:17:00",1031496,4.479,281.7,6.366,0.232,20.37,109.1438,22.7,23.77,38.82,0,111.1,13.16,23.53,243.7
"2009-07-04 01:17:30",1031497,4.414,289.3,5.217,0.169,20.29,109.1276,22.65,23.76,38.42,0,111.1,13.16,23.48,251.3
"2009-07-04 01:18:00",1031498,5.327,277.8,2.169,0.183,20.03,109.1275,22.65,23.72,39.13,0,111.1,13.16,23.48,239.8
"2009-07-04 01:18:30",1031499,4.976,286.6,3.357,0.18,20.14,109.1139,22.62,23.7,38.8,0,111.1,13.16,23.45,248.6
"2009-07-04 01:19:00",1031500,5.169,280.4,3.187,0.159,19.99,109.1049,22.6,23.68,38.97,0,111.1,13.16,23.43,242.4
"2009-07-04 01:19:30",1031501,5.31,276.8,1.048,0.077,19.81,109.0982,22.58,23.66,39.76,0,111.1,13.16,23.41,238.8
"2009-07-04 01:20:00",1031502,5.258,277.8,0.809,0.102,19.76,109.0998,22.58,23.65,39.99,0,111.1,13.16,23.41,239.8
"2009-07-04 01:20:30",1031503,5.364,273.8,1.724,0.072,19.77,109.097,22.58,23.62,40.02,0,111.1,13.16,23.41,235.8
"2009-07-04 01:21:00",1031504,5.222,272.1,0.681,0.168,19.76,109.0788,22.53,23.61,40.03,0,111.1,13.16,23.36,234.1
"2009-07-04 01:21:30",1031505,5.028,276.3,1.141,0.067,19.81,109.0706,22.51,23.59,40.26,0,111.1,13.16,23.34,238.3
"2009-07-04 01:22:00",1031506,5.088,277.8,1.562,0.067,19.77,109.0667,22.5,23.56,40.27,0,111.1,13.16,23.33,239.8
"2009-07-04 01:22:30",1031507,5.034,280.3,1.199,0.065,19.78,109.0664,22.5,23.56,40.3,0,111.1,13.16,23.33,242.3
"2009-07-04 01:23:00",1031508,5.133,281.4,1.519,0.059,19.86,109.0664,22.5,23.54,40.18,0,111.1,13.16,23.33,243.4
"2009-07-04 01:23:30",1031509,5.136,283.2,1.345,0.099,19.95,109.0633,22.49,23.53,39.97,0,111.1,13.16,23.32,245.2
"2009-07-04 01:24:00",1031510,5.182,284.9,2.443,0.148,20.01,109.056,22.47,23.5,39.28,0,111.1,13.16,23.30,246.9
"2009-07-04 01:24:30",1031511,5.331,289.6,1.117,0.074,20.09,109.0445,22.44,23.49,38.84,0,111.1,13.16,23.27,251.6
"2009-07-04 01:25:00",1031512,5.359,293.2,2.449,0.171,20.15,109.0369,22.42,23.5,38.6,0,111.1,13.16,23.25,255.2
"2009-07-04 01:25:30",1031513,5.161,296.8,2.689,0.248,20.29,109.0358,22.42,23.47,37.96,0,111.1,13.16,23.25,258.8
"2009-07-04 01:26:00",1031514,4.842,299,4.001,0.169,20.36,109.0332,22.41,23.46,37.13,0,111.1,13.15,23.24,261.0
"2009-07-04 01:26:30",1031515,5.392,295.9,0.88,0.1,20.32,109.0327,22.41,23.45,37.02,0,111.1,13.15,23.24,257.9
"2009-07-04 01:27:00",1031516,4.828,299,1.546,0.165,20.47,109.0332,22.41,23.45,36.76,0,111.1,13.15,23.24,261.0
"2009-07-04 01:27:30",1031517,5.497,295.8,1.116,0.166,20.37,109.0347,22.42,23.46,36.69,0,111.1,13.15,23.25,257.8
"2009-07-04 01:28:00",1031518,5.505,296.3,1.326,0.179,20.35,109.0375,22.42,23.46,36.71,0,111.1,13.15,23.25,258.3
"2009-07-04 01:28:30",1031519,5.485,297,0.859,0.124,20.33,109.0428,22.44,23.45,36.79,0,111.1,13.15,23.27,259.0
"2009-07-04 01:29:00",1031520,5.295,298.2,2.71,0.179,20.41,109.0498,22.45,23.46,36.32,0,111.1,13.15,23.28,260.2
"2009-07-04 01:29:30",1031521,5.237,299.5,2.852,0.201,20.49,109.0571,22.47,23.46,35.41,0,111.1,13.16,23.30,261.5
"2009-07-04 01:30:00",1031522,5.545,299.9,3.27,0.214,20.67,109.0639,22.49,23.46,34.38,0,111.1,13.16,23.32,261.9
"2009-07-04 01:30:30",1031523,6.323,308.9,9.87,0.736,21.2,109.0653,22.49,23.48,32.78,0,111.1,13.16,23.32,270.9
"2009-07-04 01:31:00",1031524,5.552,314.2,7.021,0.512,21.29,109.0664,22.5,23.47,31.61,0,111.1,13.16,23.33,276.2
"2009-07-04 01:31:30",1031525,4.957,310.3,6.421,0.391,21.26,109.0698,22.51,23.48,31.51,0,111.1,13.16,23.34,272.3
"2009-07-04 01:32:00",1031526,4.107,300.7,6.401,0.462,20.96,109.0914,22.56,23.52,31.41,0,111.1,13.16,23.39,262.7
"2009-07-04 01:32:30",1031527,5.609,286.5,5.802,0.556,20.29,109.1001,22.58,23.53,33.85,0,111.1,13.16,23.41,248.5
"2009-07-04 01:33:00",1031528,5.917,292.4,3.783,0.152,20.47,109.1049,22.6,23.55,35.05,0,111.1,13.16,23.43,254.4
"2009-07-04 01:33:30",1031529,5.353,294.2,3.552,0.232,20.58,109.1127,22.62,23.57,33.72,0,111.1,13.16,23.45,256.2
"2009-07-04 01:34:00",1031530,5.933,289.5,0.677,0.119,20.43,109.1276,22.65,23.59,35.48,0,111.1,13.16,23.48,251.5
"2009-07-04 01:34:30",1031531,5.527,290.7,0.804,0.125,20.55,109.1338,22.67,23.62,35.58,0,111.1,13.16,23.50,252.7
"2009-07-04 01:35:00",1031532,5.343,292.6,1.13,0.071,20.56,109.1338,22.67,23.63,35.04,0,111.1,13.16,23.50,254.6
"2009-07-04 01:35:30",1031533,5.241,294.9,1.17,0.043,20.56,109.1355,22.67,23.66,34.74,0,111.1,13.16,23.51,256.9
"2009-07-04 01:36:00",1031534,5.222,293.7,0.685,0.112,20.53,109.1403,22.69,23.67,35.37,0,111.1,13.16,23.52,255.7
"2009-07-04 01:36:30",1031535,5.457,289.2,1.965,0.194,20.57,109.1492,22.71,23.67,35.76,0,111.1,13.16,23.54,251.2
"2009-07-04 01:37:00",1031536,5.665,284.4,2.092,0.129,20.48,109.1592,22.73,23.69,36.17,0,111.1,13.16,23.57,246.4
"2009-07-04 01:37:30",1031537,6.031,284.2,0.971,0.139,20.37,109.1636,22.75,23.7,36.45,0,111.1,13.16,23.58,246.2
"2009-07-04 01:38:00",1031538,5.836,288.3,1.791,0.134,20.57,109.1629,22.74,23.71,36.3,0,111.1,13.16,23.58,250.3
"2009-07-04 01:38:30",1031539,5.815,286.2,1.985,0.165,20.51,109.1635,22.75,23.72,36.33,0,111.1,13.16,23.58,248.2
"2009-07-04 01:39:00",1031540,5.574,288.7,2.656,0.188,20.58,109.1604,22.74,23.72,36.22,0,111.1,13.16,23.57,250.7
"2009-07-04 01:39:30",1031541,5.335,288.8,2.716,0.193,20.68,109.1599,22.74,23.71,36.13,0,111.1,13.16,23.57,250.8
"2009-07-04 01:40:00",1031542,5.195,292.6,1.201,0.072,20.88,109.1608,22.74,23.7,35.39,0,111.1,13.16,23.57,254.6
"2009-07-04 01:40:30",1031543,4.99,291.3,0.89,0.101,20.77,109.1473,22.7,23.7,35.34,0,111.1,13.16,23.54,253.3
"2009-07-04 01:41:00",1031544,4.842,290.4,1.479,0.116,20.67,109.1378,22.68,23.69,35.39,0,111,13.16,23.51,252.4
"2009-07-04 01:41:30",1031545,4.66,291.6,1.078,0.058,20.73,109.1314,22.66,23.66,35.21,0,111,13.16,23.49,253.6
"2009-07-04 01:42:00",1031546,4.588,290,0.375,0.049,20.76,109.1295,22.66,23.65,34.61,0,111,13.16,23.49,252.0
"2009-07-04 01:42:30",1031547,4.514,290.3,0.62,0.079,20.77,109.1314,22.66,23.65,34.35,0,111,13.16,23.49,252.3
"2009-07-04 01:43:00",1031548,4.576,291.5,1.15,0.073,20.83,109.1299,22.66,23.64,33.92,0,111,13.16,23.49,253.5
"2009-07-04 01:43:30",1031549,4.499,293.1,0.89,0.069,20.81,109.1177,22.63,23.63,33.16,0,111,13.16,23.46,255.1
"2009-07-04 01:44:00",1031550,4.54,293.2,1.09,0.071,20.72,109.1116,22.61,23.62,33.11,0,111,13.16,23.44,255.2
"2009-07-04 01:44:30",1031551,4.556,294.5,0.588,0.055,20.6,109.1071,22.6,23.6,33.19,0,111,13.16,23.43,256.5
"2009-07-04 01:45:00",1031552,4.615,294.9,0.665,0.053,20.57,109.1034,22.59,23.6,33.32,0,111,13.16,23.42,256.9
"2009-07-04 01:45:30",1031553,4.506,294.8,0.506,0.056,20.55,109.1032,22.59,23.59,33.37,0,111,13.16,23.42,256.8
"2009-07-04 01:46:00",1031554,4.439,295.7,0.63,0.072,20.49,109.1032,22.59,23.58,33.74,0,111,13.16,23.42,257.7
"2009-07-04 01:46:30",1031555,4.367,296.2,0.448,0.035,20.54,109.1032,22.59,23.59,33.6,0,111,13.16,23.42,258.2
"2009-07-04 01:47:00",1031556,4.391,297.7,0.604,0.04,20.58,109.1032,22.59,23.58,33.25,0,111,13.16,23.42,259.7